DW8078 Prabuty PL current weather conditions

sailwx.info

Wind from 351

Air temperature 16.7° C
Dewpoint 14.3° C

Last reported at 2019-Aug-21 11:01 UTC.
Time now 2019-Aug-21 11:46 UTC

Location: N 53°45' E 019°12'.
View on Google Maps.

See reports from other nearby stations

  
Tides and Currents Weather Stations Pressure Air Temp Water Temp Dewpoint Dewpoint Depression Visibility Wind Speed Wind Dir Waves Ship Positions
date/time (UTC)wind fromknots sea level pressurealtimeterstation pressurevisibilityair tempwater tempwave heightnotes
2019-Aug-21 11:01 351 16.7
2019-Aug-21 10:46 345 16.7
2019-Aug-21 10:31 322 17.2
2019-Aug-21 10:15 315 17.2
2019-Aug-21 10:01 329 16.1
2019-Aug-21 09:46 305 0 gusting 4 16.1
2019-Aug-21 09:31 302 16.1
2019-Aug-21 09:15 275 15.6
2019-Aug-21 09:00 317 15.0
2019-Aug-21 08:45 317 15.0
2019-Aug-21 08:30 317 15.0
2019-Aug-21 08:15 317 15.0
2019-Aug-21 08:00 319 15.0
2019-Aug-21 07:45 320 14.4
2019-Aug-21 07:31 349 14.4
2019-Aug-21 07:15 343 14.4
2019-Aug-21 07:00 360 14.4
2019-Aug-21 06:45 346 14.4
2019-Aug-21 06:30 345 14.4
2019-Aug-21 06:15 360 14.4
2019-Aug-21 06:00 005 14.4
2019-Aug-21 05:45 360 15.0
2019-Aug-21 05:30 009 15.0
2019-Aug-21 05:15 014 15.0
2019-Aug-21 05:00 063 15.6
2019-Aug-21 04:47 080 15.6
2019-Aug-21 04:31 107 15.6
2019-Aug-21 04:17 107 15.6
2019-Aug-21 04:02 148 15.6
2019-Aug-21 03:47 073 15.6
2019-Aug-21 03:32 064 15.6
2019-Aug-21 03:16 060 15.6
2019-Aug-21 03:02 063 15.6
2019-Aug-21 02:46 029 16.1
2019-Aug-21 02:31 010 16.1
2019-Aug-21 02:17 025 16.1
2019-Aug-21 02:02 152 16.7
2019-Aug-21 01:46 168 1 gusting 5 16.7
2019-Aug-21 01:31 133 0 gusting 4 17.2
2019-Aug-21 01:15 160 1 gusting 6 17.2
2019-Aug-21 01:01 195 17.2
2019-Aug-21 00:46 156 3 gusting 8 17.2
2019-Aug-21 00:30 157 3 gusting 6 17.8
2019-Aug-21 00:15 164 2 gusting 5 17.8
2019-Aug-21 00:00 163 18.3
2019-Aug-20 23:45 179 18.3
2019-Aug-20 23:30 155 18.3
2019-Aug-20 23:16 173 18.3
2019-Aug-20 23:01 155 18.3
2019-Aug-20 22:45 163 18.9
2019-Aug-20 22:30 163 18.9
2019-Aug-20 22:15 150 18.9
2019-Aug-20 22:00 153 18.9
2019-Aug-20 21:45 162 0 gusting 5 18.9
2019-Aug-20 21:30 145 1 gusting 5 18.9
2019-Aug-20 21:15 152 19.4
2019-Aug-20 21:00 163 19.4
2019-Aug-20 20:45 163 19.4
2019-Aug-20 20:30 163 19.4
2019-Aug-20 20:15 144 19.4
2019-Aug-20 20:00 144 20.0
2019-Aug-20 19:45 143 20.0
2019-Aug-20 19:30 148 20.0
2019-Aug-20 19:15 184 20.0
2019-Aug-20 19:00 184 20.6
2019-Aug-20 18:45 185 21.1
2019-Aug-20 18:30 185 21.1
2019-Aug-20 18:15 186 21.1
2019-Aug-20 18:00 186 21.7
2019-Aug-20 17:45 186 22.8
2019-Aug-20 17:30 186 22.8
2019-Aug-20 17:15 188 22.8
2019-Aug-20 16:45 310 23.3
2019-Aug-20 16:30 310 23.3
2019-Aug-20 16:15 310 23.3
2019-Aug-20 16:00 310 23.9
2019-Aug-20 15:45 310 23.9
2019-Aug-20 15:30 304 23.9
2019-Aug-20 15:15 323 24.4
2019-Aug-20 15:00 323 23.9
2019-Aug-20 14:45 306 24.4
2019-Aug-20 14:31 279 0 gusting 5 23.9
2019-Aug-20 14:16 355 23.9
2019-Aug-20 14:02 327 24.4
2019-Aug-20 13:46 317 1 gusting 6 23.3
2019-Aug-20 13:31 291 2 gusting 7 23.9
2019-Aug-20 13:16 298 1 gusting 6 23.9
2019-Aug-20 13:02 248 3 gusting 8 23.9
2019-Aug-20 12:46 319 2 gusting 7 23.3
2019-Aug-20 12:31 287 4 gusting 7 22.8
2019-Aug-20 12:16 019 4 gusting 9 22.8
2019-Aug-20 12:01 294 3 gusting 11 22.8
2019-Aug-20 11:47 355 4 gusting 11 22.8
2019-Aug-20 11:31 326 5 gusting 10 22.8
2019-Aug-20 11:16 323 5 gusting 12 22.2
2019-Aug-20 11:02 298 4 gusting 9 22.2
2019-Aug-20 10:46 321 5 gusting 11 22.2
2019-Aug-20 10:32 360 3 gusting 7 21.7
2019-Aug-20 10:16 015 2 gusting 6 21.7
2019-Aug-20 10:01 326 2 gusting 5 21.1
2019-Aug-20 09:45 276 21.1
2019-Aug-20 09:31 250 20.6
2019-Aug-20 09:15 259 19.4
2019-Aug-20 09:00 313 18.9
2019-Aug-20 08:45 200 18.3
2019-Aug-20 08:30 265 18.3
2019-Aug-20 08:15 263 17.8
2019-Aug-20 08:00 194 17.8
2019-Aug-20 07:45 221 16.7
2019-Aug-20 07:30 258 16.1
2019-Aug-20 07:17 257 15.6
2019-Aug-20 07:01 265 15.6
2019-Aug-20 06:47 263 15.0
2019-Aug-20 06:31 276 15.0
2019-Aug-20 06:17 276 15.0
2019-Aug-20 06:01 276 14.4
2019-Aug-20 05:46 276 14.4
2019-Aug-20 05:31 276 13.9
2019-Aug-20 05:16 276 13.9
2019-Aug-20 05:01 337 13.3
2019-Aug-20 04:46 337 13.3
2019-Aug-20 04:31 227 13.3
2019-Aug-20 04:16 215 12.8
2019-Aug-20 04:01 217 12.8
2019-Aug-20 03:46 217 13.3
2019-Aug-20 03:31 215 13.3
2019-Aug-20 03:15 215 13.9
2019-Aug-20 03:01 215 13.9
2019-Aug-20 02:45 215 13.9
2019-Aug-20 02:31 215 14.4
2019-Aug-20 02:16 215 14.4
2019-Aug-20 02:01 219 14.4
2019-Aug-20 01:45 218 13.9
2019-Aug-20 01:30 218 14.4
2019-Aug-20 01:15 248 15.0
2019-Aug-20 01:00 338 15.0
2019-Aug-20 00:45 338 15.6
2019-Aug-20 00:30 339 15.6
2019-Aug-20 00:15 263 15.6
2019-Aug-20 00:00 263 15.6
2019-Aug-19 23:45 263 15.6
2019-Aug-19 23:30 263 15.6
2019-Aug-19 23:15 263 15.6
2019-Aug-19 23:00 263 16.1
2019-Aug-19 22:45 282 16.1
2019-Aug-19 22:30 272 16.1
2019-Aug-19 22:17 271 16.7
2019-Aug-19 22:02 286 16.7
2019-Aug-19 21:47 270 16.7
2019-Aug-19 21:31 290 17.2
2019-Aug-19 21:17 275 17.2
2019-Aug-19 21:03 286 17.2
2019-Aug-19 20:46 269 17.2
2019-Aug-19 20:32 259 17.8
2019-Aug-19 20:17 246 17.8
2019-Aug-19 20:01 228 18.3
2019-Aug-19 19:46 266 18.3
2019-Aug-19 19:31 223 18.3
2019-Aug-19 19:17 265 18.9
2019-Aug-19 19:01 254 19.4
2019-Aug-19 18:46 261 19.4
2019-Aug-19 18:30 263 19.4
2019-Aug-19 18:17 276 20.0
2019-Aug-19 18:02 248 20.0
2019-Aug-19 17:46 262 20.6
2019-Aug-19 17:31 275 0 gusting 4 20.6
2019-Aug-19 17:16 268 20.6
2019-Aug-19 17:01 265 20.6
2019-Aug-19 16:45 306 20.6
2019-Aug-19 16:31 298 4 gusting 7 21.1
2019-Aug-19 16:16 278 3 gusting 6 21.7
2019-Aug-19 16:01 275 3 gusting 10 21.7
2019-Aug-19 15:45 290 21.1
2019-Aug-19 15:30 264 4 gusting 9 21.1
2019-Aug-19 15:15 256 21.1
2019-Aug-19 15:00 287 21.1
2019-Aug-19 14:45 301 2 gusting 8 21.1
2019-Aug-19 14:31 266 3 gusting 8 21.1
2019-Aug-19 14:15 302 3 gusting 6 20.6
2019-Aug-19 14:00 269 1 gusting 6 20.6
2019-Aug-19 13:46 315 1 gusting 7 20.6
2019-Aug-19 13:30 280 3 gusting 7 20.6
2019-Aug-19 13:16 312 0 gusting 7 20.0
2019-Aug-19 13:00 283 1 gusting 6 20.0
2019-Aug-19 12:45 307 20.0
2019-Aug-19 12:30 311 3 gusting 5 20.0
2019-Aug-19 12:15 338 20.0
2019-Aug-19 12:00 329 20.0
2019-Aug-19 11:45 326 20.0
2019-Aug-19 11:30 278 20.0
2019-Aug-19 11:15 304 20.6
2019-Aug-19 11:00 326 0 gusting 6 20.6